Time,TemperatureF,DewpointF,PressureIn,WindDirection,WindDirectionDegrees,WindSpeedMPH,WindSpeedGustMPH,Humidity,HourlyPrecipIn,Conditions,Clouds,dailyrainin,SoftwareType,DateUTC
2013-04-02 00:00:00,31.7,17.0,29.86,West,276,3.0,-999.0,54,-99.99,,,0.09,weatherlink.com 1.10,2013-04-02 04:00:00,
2013-04-02 00:15:00,31.4,18.0,29.87,NE,43,2.0,-999.0,57,-99.99,,,0.00,weatherlink.com 1.10,2013-04-02 04:15:00,
2013-04-02 00:30:00,31.1,18.0,29.87,NW,326,0.0,-999.0,58,-99.99,,,0.00,weatherlink.com 1.10,2013-04-02 04:30:00,
2013-04-02 00:45:00,30.8,18.0,29.88,NNE,19,0.0,-999.0,60,-99.99,,,0.00,weatherlink.com 1.10,2013-04-02 04:45:00,
2013-04-02 01:00:00,30.5,18.0,29.89,NNE,21,0.0,-999.0,61,-99.99,,,0.00,weatherlink.com 1.10,2013-04-02 05:00:00,
2013-04-02 01:15:00,30.2,18.0,29.88,NW,326,0.0,-999.0,62,-99.99,,,0.00,weatherlink.com 1.10,2013-04-02 05:15:00,
2013-04-02 01:30:00,29.8,18.0,29.89,NW,318,5.0,-999.0,63,-99.99,,,0.00,weatherlink.com 1.10,2013-04-02 05:30:00,
2013-04-02 01:45:00,29.7,19.0,29.89,NW,321,0.0,-999.0,64,-99.99,,,0.00,weatherlink.com 1.10,2013-04-02 05:45:00,
2013-04-02 02:00:00,29.3,19.0,29.88,WNW,295,0.0,-999.0,65,-99.99,,,0.00,weatherlink.com 1.10,2013-04-02 06:00:00,
2013-04-02 02:15:00,28.8,19.0,29.88,WNW,291,0.0,-999.0,66,-99.99,,,0.00,weatherlink.com 1.10,2013-04-02 06:15:00,
2013-04-02 02:30:00,28.2,19.0,29.89,WNW,296,1.0,-999.0,68,-99.99,,,0.00,weatherlink.com 1.10,2013-04-02 06:30:00,
2013-04-02 02:45:00,28.1,18.0,29.88,WNW,298,0.0,-999.0,67,-99.99,,,0.00,weatherlink.com 1.10,2013-04-02 06:45:00,
2013-04-02 03:00:00,28.0,18.0,29.88,WNW,298,0.0,-999.0,66,-99.99,,,0.00,weatherlink.com 1.10,2013-04-02 07:00:00,
2013-04-02 03:15:00,27.7,18.0,29.88,WNW,295,1.0,-999.0,67,-99.99,,,0.00,weatherlink.com 1.10,2013-04-02 07:15:00,
2013-04-02 03:30:00,27.7,17.0,29.88,NW,308,0.0,-999.0,65,-99.99,,,0.00,weatherlink.com 1.10,2013-04-02 07:30:00,
2013-04-02 03:45:00,28.0,17.0,29.88,WNW,292,5.0,-999.0,63,-99.99,,,0.00,weatherlink.com 1.10,2013-04-02 07:45:00,
2013-04-02 04:00:00,27.6,17.0,29.88,West,264,0.0,-999.0,64,-99.99,,,0.00,weatherlink.com 1.10,2013-04-02 08:00:00,
2013-04-02 04:15:00,27.0,17.0,29.88,West,268,0.0,-999.0,65,-99.99,,,0.00,weatherlink.com 1.10,2013-04-02 08:15:00,
2013-04-02 04:30:00,26.7,17.0,29.88,West,268,0.0,-999.0,66,-99.99,,,0.00,weatherlink.com 1.10,2013-04-02 08:30:00,
2013-04-02 04:45:00,26.1,16.0,29.88,West,269,0.0,-999.0,67,-99.99,,,0.00,weatherlink.com 1.10,2013-04-02 08:45:00,
2013-04-02 05:00:00,26.2,16.0,29.89,WSW,256,0.0,-999.0,66,-99.99,,,0.00,weatherlink.com 1.10,2013-04-02 09:00:00,
2013-04-02 05:16:00,26.3,16.0,29.89,WSW,253,0.0,-999.0,65,-99.99,,,0.00,weatherlink.com 1.10,2013-04-02 09:16:00,
2013-04-02 05:30:00,26.7,16.0,29.89,WSW,242,5.0,-999.0,63,-99.99,,,0.00,weatherlink.com 1.10,2013-04-02 09:30:00,
2013-04-02 05:45:00,27.1,16.0,29.89,SW,226,6.0,-999.0,62,-99.99,,,0.00,weatherlink.com 1.10,2013-04-02 09:45:00,
2013-04-02 06:00:00,27.0,16.0,29.89,West,264,0.0,-999.0,63,-99.99,,,0.00,weatherlink.com 1.10,2013-04-02 10:00:00,
2013-04-02 06:15:00,26.8,16.0,29.89,WNW,297,3.0,-999.0,63,-99.99,,,0.00,weatherlink.com 1.10,2013-04-02 10:15:00,
2013-04-02 06:30:00,26.7,16.0,29.90,WNW,296,0.0,-999.0,63,-99.99,,,0.00,weatherlink.com 1.10,2013-04-02 10:30:00,
2013-04-02 06:45:00,26.8,16.0,29.90,West,268,3.0,-999.0,63,-99.99,,,0.00,weatherlink.com 1.10,2013-04-02 10:45:00,
2013-04-02 07:00:00,26.8,15.0,29.91,West,271,2.0,-999.0,62,-99.99,,,0.00,weatherlink.com 1.10,2013-04-02 11:00:00,
2013-04-02 07:15:00,27.1,15.0,29.92,WNW,290,0.0,-999.0,61,-99.99,,,0.00,weatherlink.com 1.10,2013-04-02 11:15:00,
2013-04-02 07:30:00,27.4,15.0,29.93,NNW,327,0.0,-999.0,60,-99.99,,,0.00,weatherlink.com 1.10,2013-04-02 11:30:00,
2013-04-02 07:45:00,28.0,15.0,29.93,NW,305,0.0,-999.0,59,-99.99,,,0.00,weatherlink.com 1.10,2013-04-02 11:45:00,
2013-04-02 08:00:00,28.7,15.0,29.93,ENE,61,2.0,-999.0,58,-99.99,,,0.00,weatherlink.com 1.10,2013-04-02 12:00:00,
2013-04-02 08:15:00,29.0,15.0,29.94,WSW,248,0.0,-999.0,57,-99.99,,,0.00,weatherlink.com 1.10,2013-04-02 12:15:00,
2013-04-02 08:30:00,29.4,15.0,29.94,SSW,199,1.0,-999.0,56,-99.99,,,0.00,weatherlink.com 1.10,2013-04-02 12:30:00,
2013-04-02 08:45:00,29.8,15.0,29.94,NW,321,4.0,-999.0,55,-99.99,,,0.00,weatherlink.com 1.10,2013-04-02 12:45:00,
2013-04-02 09:00:00,30.5,15.0,29.94,WSW,252,5.0,-999.0,53,-99.99,,,0.00,weatherlink.com 1.10,2013-04-02 13:00:00,
2013-04-02 09:15:00,31.2,15.0,29.94,WNW,295,5.0,-999.0,51,-99.99,,,0.00,weatherlink.com 1.10,2013-04-02 13:15:00,
2013-04-02 09:30:00,32.5,15.0,29.94,North,354,7.0,-999.0,49,-99.99,,,0.00,weatherlink.com 1.10,2013-04-02 13:30:00,
2013-04-02 09:45:00,33.9,14.0,29.95,WSW,247,4.0,-999.0,45,-99.99,,,0.00,weatherlink.com 1.10,2013-04-02 13:45:00,
2013-04-02 10:00:00,34.4,14.0,29.95,WNW,298,9.0,-999.0,44,-99.99,,,0.00,weatherlink.com 1.10,2013-04-02 14:00:00,
2013-04-02 10:15:00,34.8,15.0,29.95,SW,221,5.0,-999.0,44,-99.99,,,0.00,weatherlink.com 1.10,2013-04-02 14:15:00,
2013-04-02 10:30:00,34.9,14.0,29.95,NNW,328,5.0,-999.0,43,-99.99,,,0.00,weatherlink.com 1.10,2013-04-02 14:30:00,
2013-04-02 10:45:00,34.9,13.0,29.95,NNW,343,15.0,-999.0,41,-99.99,,,0.00,weatherlink.com 1.10,2013-04-02 14:45:00,
2013-04-02 11:00:00,35.7,13.0,29.95,SW,228,9.0,-999.0,40,-99.99,,,0.00,weatherlink.com 1.10,2013-04-02 15:00:00,
2013-04-02 11:15:00,37.2,15.0,29.95,NW,310,8.0,-999.0,40,-99.99,,,0.00,weatherlink.com 1.10,2013-04-02 15:15:00,
2013-04-02 11:30:00,35.9,14.0,29.94,NNW,338,0.0,-999.0,40,-99.99,,,0.00,weatherlink.com 1.10,2013-04-02 15:30:00,
2013-04-02 11:45:00,37.1,14.0,29.95,North,359,13.0,-999.0,39,-99.99,,,0.00,weatherlink.com 1.10,2013-04-02 15:45:00,
2013-04-02 12:00:00,37.5,14.0,29.94,WNW,297,11.0,-999.0,38,-99.99,,,0.00,weatherlink.com 1.10,2013-04-02 16:00:00,
2013-04-02 12:15:00,39.0,16.0,29.94,NW,326,4.0,-999.0,39,-99.99,,,0.00,weatherlink.com 1.10,2013-04-02 16:15:00,
2013-04-02 12:30:00,38.3,12.0,29.94,NW,325,8.0,-999.0,34,-99.99,,,0.00,weatherlink.com 1.10,2013-04-02 16:30:00,
2013-04-02 12:45:00,37.7,13.0,29.93,West,262,15.0,-999.0,36,-99.99,,,0.00,weatherlink.com 1.10,2013-04-02 16:45:00,
2013-04-02 13:00:00,37.9,13.0,29.93,NNE,23,6.0,-999.0,36,-99.99,,,0.00,weatherlink.com 1.10,2013-04-02 17:00:00,
2013-04-02 13:15:00,38.0,11.0,29.93,WNW,294,0.0,-999.0,33,-99.99,,,0.00,weatherlink.com 1.10,2013-04-02 17:15:00,
2013-04-02 13:30:00,39.5,11.0,29.92,WSW,255,6.0,-999.0,31,-99.99,,,0.00,weatherlink.com 1.10,2013-04-02 17:30:00,
2013-04-02 13:45:00,39.1,10.0,29.91,NW,322,7.0,-999.0,30,-99.99,,,0.00,weatherlink.com 1.10,2013-04-02 17:45:00,
2013-04-02 14:00:00,39.1,11.0,29.92,WSW,253,5.0,-999.0,31,-99.99,,,0.00,weatherlink.com 1.10,2013-04-02 18:00:00,
2013-04-02 14:15:00,38.6,10.0,29.92,NNW,347,9.0,-999.0,31,-99.99,,,0.00,weatherlink.com 1.10,2013-04-02 18:15:00,
2013-04-02 14:30:00,38.5,10.0,29.91,NW,316,6.0,-999.0,31,-99.99,,,0.00,weatherlink.com 1.10,2013-04-02 18:30:00,
2013-04-02 14:45:00,37.9,10.0,29.92,ESE,110,1.0,-999.0,31,-99.99,,,0.00,weatherlink.com 1.10,2013-04-02 18:45:00,
2013-04-02 15:00:00,38.5,10.0,29.91,NNW,333,12.0,-999.0,31,-99.99,,,0.00,weatherlink.com 1.10,2013-04-02 19:00:00,
2013-04-02 15:15:00,39.3,10.0,29.91,NW,321,8.0,-999.0,30,-99.99,,,0.00,weatherlink.com 1.10,2013-04-02 19:15:00,
2013-04-02 15:30:00,39.1,9.0,29.91,ESE,112,4.0,-999.0,29,-99.99,,,0.00,weatherlink.com 1.10,2013-04-02 19:30:00,
2013-04-02 15:45:00,38.5,9.0,29.91,NNW,347,4.0,-999.0,29,-99.99,,,0.00,weatherlink.com 1.10,2013-04-02 19:45:00,
2013-04-02 16:00:00,37.2,9.0,29.91,North,4,0.0,-999.0,31,-99.99,,,0.00,weatherlink.com 1.10,2013-04-02 20:00:00,
2013-04-02 16:15:00,38.8,10.0,29.91,North,4,4.0,-999.0,30,-99.99,,,0.00,weatherlink.com 1.10,2013-04-02 20:15:00,
2013-04-02 16:30:00,38.2,10.0,29.93,NNW,332,18.0,-999.0,31,-99.99,,,0.00,weatherlink.com 1.10,2013-04-02 20:30:00,
2013-04-02 16:45:00,37.4,10.0,29.92,WSW,240,4.0,-999.0,32,-99.99,,,0.00,weatherlink.com 1.10,2013-04-02 20:45:00,
2013-04-02 17:00:00,38.0,10.0,29.92,ENE,67,0.0,-999.0,31,-99.99,,,0.00,weatherlink.com 1.10,2013-04-02 21:00:00,
2013-04-02 17:15:00,38.2,9.0,29.93,NW,315,5.0,-999.0,30,-99.99,,,0.00,weatherlink.com 1.10,2013-04-02 21:15:00,
2013-04-02 17:30:00,37.3,9.0,29.93,NW,323,1.0,-999.0,31,-99.99,,,0.00,weatherlink.com 1.10,2013-04-02 21:30:00,
2013-04-02 17:45:00,37.0,9.0,29.94,WNW,294,7.0,-999.0,31,-99.99,,,0.00,weatherlink.com 1.10,2013-04-02 21:45:00,
2013-04-02 18:00:00,37.0,9.0,29.94,NW,314,11.0,-999.0,31,-99.99,,,0.00,weatherlink.com 1.10,2013-04-02 22:00:00,
2013-04-02 18:15:00,36.9,9.0,29.95,NNW,330,6.0,-999.0,32,-99.99,,,0.00,weatherlink.com 1.10,2013-04-02 22:15:00,
2013-04-02 18:30:00,36.5,9.0,29.95,WNW,303,9.0,-999.0,32,-99.99,,,0.00,weatherlink.com 1.10,2013-04-02 22:30:00,
2013-04-02 18:45:00,36.1,9.0,29.96,North,10,2.0,-999.0,33,-99.99,,,0.00,weatherlink.com 1.10,2013-04-02 22:45:00,
2013-04-02 19:00:00,35.5,10.0,29.96,NNW,344,5.0,-999.0,35,-99.99,,,0.00,weatherlink.com 1.10,2013-04-02 23:00:00,
2013-04-02 19:15:00,34.9,10.0,29.96,North,354,7.0,-999.0,35,-99.99,,,0.00,weatherlink.com 1.10,2013-04-02 23:15:00,
2013-04-02 19:30:00,34.7,10.0,29.97,NW,306,3.0,-999.0,35,-99.99,,,0.00,weatherlink.com 1.10,2013-04-02 23:30:00,
2013-04-02 19:45:00,34.4,10.0,29.98,NNW,333,1.0,-999.0,36,-99.99,,,0.00,weatherlink.com 1.10,2013-04-02 23:45:00,
2013-04-02 20:00:00,34.1,10.0,29.98,NNW,348,6.0,-999.0,36,-99.99,,,0.00,weatherlink.com 1.10,2013-04-03 00:00:00,
2013-04-02 20:15:00,33.8,10.0,29.99,NW,315,0.0,-999.0,37,-99.99,,,0.00,weatherlink.com 1.10,2013-04-03 00:15:00,
2013-04-02 20:30:00,33.7,9.0,30.00,NNW,328,3.0,-999.0,36,-99.99,,,0.00,weatherlink.com 1.10,2013-04-03 00:30:00,
2013-04-02 20:45:00,33.5,10.0,30.00,NNW,337,4.0,-999.0,37,-99.99,,,0.00,weatherlink.com 1.10,2013-04-03 00:45:00,
2013-04-02 21:00:00,33.4,10.0,30.00,NNW,345,7.0,-999.0,38,-99.99,,,0.00,weatherlink.com 1.10,2013-04-03 01:00:00,
2013-04-02 21:15:00,33.0,10.0,30.01,West,267,0.0,-999.0,39,-99.99,,,0.00,weatherlink.com 1.10,2013-04-03 01:15:00,
2013-04-02 21:30:00,32.9,11.0,30.01,WNW,303,2.0,-999.0,40,-99.99,,,0.00,weatherlink.com 1.10,2013-04-03 01:30:00,
2013-04-02 22:00:00,32.2,11.0,30.01,WNW,297,5.0,-999.0,41,-99.99,,,0.00,weatherlink.com 1.10,2013-04-03 02:00:00,
2013-04-02 22:15:00,32.2,10.0,30.01,NNW,336,2.0,-999.0,40,-99.99,,,0.00,weatherlink.com 1.10,2013-04-03 02:15:00,
2013-04-02 22:30:00,32.1,10.0,30.00,NNW,345,7.0,-999.0,39,-99.99,,,0.00,weatherlink.com 1.10,2013-04-03 02:30:00,
2013-04-02 22:45:00,32.1,10.0,30.01,WSW,253,2.0,-999.0,40,-99.99,,,0.00,weatherlink.com 1.10,2013-04-03 02:45:00,
2013-04-02 23:00:00,31.9,9.0,30.02,WSW,253,5.0,-999.0,39,-99.99,,,0.00,weatherlink.com 1.10,2013-04-03 03:00:00,
2013-04-02 23:15:00,31.8,9.0,30.02,NNW,330,10.0,-999.0,38,-99.99,,,0.00,weatherlink.com 1.10,2013-04-03 03:15:00,
2013-04-02 23:30:00,31.8,9.0,30.02,North,354,0.0,-999.0,38,-99.99,,,0.00,weatherlink.com 1.10,2013-04-03 03:30:00,
2013-04-02 23:45:00,31.5,8.0,30.02,North,359,0.0,-999.0,38,-99.99,,,0.00,weatherlink.com 1.10,2013-04-03 03:45:00,